When you browse on this site, cookies collect data to enhance your experience and personalize the content and advertising you see.
Visit our Privacy Policy to learn more. By continuing to use the site, you agree to this use of cookies and data.
  • In Lithuania
  • List of Countries
  • For 7 days
  • Water Temperature
  • Weather Map
  • Weather Widgets
  • user-avatar
    Login

    Hourly Weather Staraya Poltavka

    Today, 18 August, Sunday

    Time Temperature Precipitation Wind Pressure Humidity
    00:00 +28°C° 0.2 mm 4 mps 756 mmHg 29%
    01:00 +28°C° 0.1 mm 4 mps 756 mmHg 33%
    02:00 +27°C° 0.1 mm 4 mps 756 mmHg 37%
    03:00 +27°C° 0.1 mm 3 mps 756 mmHg 41%
    04:00 +26°C° 0 mm 3 mps 757 mmHg 44%
    05:00 +26°C° 0 mm 4 mps 757 mmHg 47%
    06:00 +25°C° 0 mm 4 mps 757 mmHg 50%
    07:00 +27°C° 0 mm 5 mps 757 mmHg 42%
    08:00 +29°C° 0 mm 6 mps 757 mmHg 35%
    09:00 +32°C° 0 mm 6 mps 758 mmHg 27%
    10:00 +34°C° 0 mm 7 mps 758 mmHg 24%
    11:00 +35°C° 0 mm 7 mps 757 mmHg 21%
    12:00 +36°C° 0 mm 7 mps 757 mmHg 19%
    13:00 +36°C° 0 mm 7 mps 757 mmHg 18%
    14:00 +38°C° 0 mm 7 mps 757 mmHg 18%
    15:00 +38°C° 0 mm 7 mps 757 mmHg 17%
    16:00 +36°C° 0 mm 6 mps 757 mmHg 18%
    17:00 +36°C° 0 mm 5 mps 757 mmHg 20%
    18:00 +35°C° 0 mm 4 mps 757 mmHg 21%
    19:00 +34°C° 0 mm 4 mps 758 mmHg 22%
    20:00 +33°C° 0 mm 5 mps 758 mmHg 23%
    21:00 +32°C° 0 mm 5 mps 758 mmHg 24%
    22:00 +30°C° 0 mm 5 mps 758 mmHg 25%
    23:00 +30°C° 0 mm 5 mps 759 mmHg 25%

    Tomorrow, 19 August, Monday

    Time Temperature Precipitation Wind Pressure Humidity
    00:00 +29°C° 0 mm 4 mps 759 mmHg 26%
    01:00 +28°C° 0 mm 4 mps 759 mmHg 28%
    02:00 +27°C° 0 mm 3 mps 759 mmHg 29%
    03:00 +26°C° 0 mm 3 mps 759 mmHg 31%
    04:00 +26°C° 0 mm 3 mps 759 mmHg 32%
    05:00 +26°C° 0 mm 3 mps 760 mmHg 33%
    06:00 +26°C° 0 mm 3 mps 760 mmHg 35%
    07:00 +28°C° 0 mm 3 mps 760 mmHg 31%
    08:00 +30°C° 0 mm 2 mps 760 mmHg 27%
    09:00 +32°C° 0 mm 2 mps 761 mmHg 23%
    10:00 +35°C° 0 mm 3 mps 761 mmHg 21%
    11:00 +36°C° 0 mm 4 mps 761 mmHg 18%
    12:00 +38°C° 0 mm 4 mps 760 mmHg 16%
    13:00 +38°C° 0 mm 4 mps 760 mmHg 16%
    14:00 +40°C° 0 mm 5 mps 760 mmHg 15%
    15:00 +40°C° 0 mm 5 mps 760 mmHg 15%
    16:00 +38°C° 0 mm 4 mps 760 mmHg 17%
    17:00 +37°C° 0 mm 3 mps 760 mmHg 19%
    18:00 +36°C° 0 mm 1 mps 760 mmHg 21%
    19:00 +35°C° 0 mm 2 mps 760 mmHg 23%
    20:00 +32°C° 0 mm 2 mps 760 mmHg 24%
    21:00 +30°C° 0 mm 3 mps 760 mmHg 25%
    22:00 +30°C° 0 mm 3 mps 760 mmHg 26%
    23:00 +29°C° 0 mm 3 mps 761 mmHg 26%

    Day after tomorrow, 20 August, Tuesday

    Time Temperature Precipitation Wind Pressure Humidity
    00:00 +29°C° 0 mm 4 mps 761 mmHg 27%
    01:00 +28°C° 0 mm 3 mps 761 mmHg 28%
    02:00 +27°C° 0 mm 3 mps 761 mmHg 30%
    03:00 +26°C° 0 mm 3 mps 761 mmHg 31%
    04:00 +26°C° 0 mm 2 mps 761 mmHg 35%
    05:00 +26°C° 0 mm 2 mps 761 mmHg 39%
    06:00 +25°C° 0 mm 2 mps 761 mmHg 43%
    07:00 +27°C° 0 mm 2 mps 762 mmHg 37%
    08:00 +30°C° 0 mm 2 mps 762 mmHg 31%
    09:00 +32°C° 0 mm 2 mps 762 mmHg 26%
    10:00 +34°C° 0 mm 2 mps 762 mmHg 23%
    11:00 +36°C° 0 mm 2 mps 762 mmHg 20%
    12:00 +37°C° 0 mm 3 mps 762 mmHg 17%
    13:00 +37°C° 0 mm 3 mps 762 mmHg 16%
    14:00 +38°C° 0 mm 2 mps 761 mmHg 16%
    15:00 +38°C° 0 mm 2 mps 761 mmHg 15%
    16:00 +37°C° 0 mm 3 mps 761 mmHg 19%
    17:00 +36°C° 0 mm 3 mps 761 mmHg 22%
    18:00 +35°C° 0 mm 4 mps 761 mmHg 25%
    19:00 +33°C° 0 mm 4 mps 761 mmHg 32%
    20:00 +32°C° 0 mm 5 mps 761 mmHg 40%
    21:00 +29°C° 0 mm 5 mps 761 mmHg 47%
    22:00 +28°C° 0 mm 5 mps 762 mmHg 50%
    23:00 +27°C° 0 mm 5 mps 762 mmHg 54%

    21 August, Wednesday

    Time Temperature Precipitation Wind Pressure Humidity
    00:00 +27°C° 0 mm 5 mps 762 mmHg 57%
    01:00 +26°C° 0 mm 5 mps 762 mmHg 59%
    02:00 +25°C° 0 mm 5 mps 762 mmHg 61%
    03:00 +25°C° 0 mm 4 mps 762 mmHg 63%
    04:00 +23°C° 0 mm 4 mps 762 mmHg 64%
    05:00 +23°C° 0 mm 5 mps 762 mmHg 66%
    06:00 +23°C° 0 mm 5 mps 763 mmHg 67%
    07:00 +26°C° 0 mm 5 mps 763 mmHg 62%
    08:00 +27°C° 0 mm 5 mps 763 mmHg 57%
    09:00 +29°C° 0 mm 5 mps 763 mmHg 53%
    10:00 +30°C° 0 mm 5 mps 763 mmHg 47%
    11:00 +32°C° 0 mm 5 mps 763 mmHg 42%
    12:00 +33°C° 0 mm 5 mps 763 mmHg 37%
    13:00 +34°C° 0 mm 5 mps 762 mmHg 34%
    14:00 +34°C° 0 mm 5 mps 762 mmHg 31%
    15:00 +35°C° 0 mm 5 mps 762 mmHg 28%
    16:00 +34°C° 0 mm 5 mps 762 mmHg 30%
    17:00 +33°C° 0 mm 4 mps 762 mmHg 32%
    18:00 +32°C° 0 mm 4 mps 762 mmHg 33%
    19:00 +30°C° 0 mm 4 mps 762 mmHg 38%
    20:00 +28°C° 0 mm 4 mps 762 mmHg 43%
    21:00 +26°C° 0 mm 4 mps 762 mmHg 49%
    22:00 +26°C° 0 mm 4 mps 762 mmHg 52%
    23:00 +25°C° 0 mm 4 mps 762 mmHg 55%

    22 August, Thursday

    Time Temperature Precipitation Wind Pressure Humidity
    00:00 +24°C° 0 mm 3 mps 762 mmHg 58%
    01:00 +24°C° 0 mm 3 mps 762 mmHg 61%
    02:00 +22°C° 0 mm 3 mps 762 mmHg 65%
    03:00 +22°C° 0 mm 3 mps 762 mmHg 68%
    04:00 +22°C° 0 mm 3 mps 762 mmHg 70%
    05:00 +22°C° 0 mm 3 mps 762 mmHg 72%
    06:00 +22°C° 0 mm 3 mps 762 mmHg 74%
    07:00 +25°C° 0 mm 3 mps 762 mmHg 67%
    08:00 +26°C° 0 mm 3 mps 763 mmHg 61%
    09:00 +28°C° 0 mm 3 mps 763 mmHg 55%
    10:00 +29°C° 0 mm 3 mps 762 mmHg 49%
    11:00 +31°C° 0 mm 3 mps 762 mmHg 44%
    12:00 +33°C° 0 mm 3 mps 762 mmHg 38%
    13:00 +33°C° 0 mm 3 mps 762 mmHg 36%
    14:00 +34°C° 0 mm 3 mps 761 mmHg 33%
    15:00 +35°C° 0 mm 3 mps 761 mmHg 31%
    16:00 +34°C° 0 mm 2 mps 761 mmHg 32%
    17:00 +34°C° 0 mm 2 mps 761 mmHg 33%
    18:00 +32°C° 0 mm 2 mps 761 mmHg 35%
    19:00 +31°C° 0 mm 2 mps 761 mmHg 39%
    20:00 +29°C° 0 mm 2 mps 761 mmHg 43%
    21:00 +27°C° 0 mm 2 mps 761 mmHg 47%
    22:00 +27°C° 0 mm 2 mps 761 mmHg 47%
    23:00 +26°C° 0 mm 2 mps 761 mmHg 48%

    23 August, Friday

    Time Temperature Precipitation Wind Pressure Humidity
    00:00 +26°C° 0 mm 2 mps 761 mmHg 48%
    01:00 +25°C° 0 mm 2 mps 761 mmHg 48%
    02:00 +25°C° 0 mm 2 mps 761 mmHg 49%
    03:00 +24°C° 0 mm 1 mps 761 mmHg 49%
    04:00 +25°C° 0 mm 1 mps 761 mmHg 50%
    05:00 +25°C° 0 mm 1 mps 761 mmHg 50%
    06:00 +25°C° 0 mm 1 mps 761 mmHg 50%
    07:00 +27°C° 0 mm 1 mps 761 mmHg 45%
    08:00 +27°C° 0 mm 0 mps 761 mmHg 40%
    09:00 +29°C° 0 mm 0 mps 761 mmHg 35%
    10:00 +30°C° 0 mm 0 mps 760 mmHg 33%
    11:00 +31°C° 0 mm 0 mps 760 mmHg 31%
    12:00 +34°C° 0 mm 1 mps 760 mmHg 29%
    13:00 +34°C° 0 mm 1 mps 760 mmHg 28%
    14:00 +35°C° 0 mm 1 mps 760 mmHg 27%
    15:00 +35°C° 0 mm 1 mps 759 mmHg 26%
    16:00 +35°C° 0 mm 2 mps 759 mmHg 28%
    17:00 +35°C° 0 mm 2 mps 759 mmHg 30%
    18:00 +34°C° 0 mm 2 mps 759 mmHg 33%
    19:00 +33°C° 0 mm 3 mps 759 mmHg 36%
    20:00 +30°C° 0 mm 3 mps 759 mmHg 39%
    21:00 +29°C° 0 mm 3 mps 759 mmHg 43%
    22:00 +28°C° 0 mm 2 mps 759 mmHg 46%
    23:00 +27°C° 0 mm 2 mps 759 mmHg 48%
    Show more